Home   Weather   Poole   Past weeks

Flag for United Kingdom Past Weather in Poole, England, United Kingdom — Yesterday and Last 2 Weeks

Now
43 °F

Partly sunny.


Feels Like: 39 °F
Forecast: 35 / 44 °F
Wind: 7 mph from East

Location: Bournemouth Airport

Current Time: Jan 17, 2017 at 11:26:01 am

Latest Report: Jan 17, 2017 at 10:50 am


Visibility: N/A

Pressure: 30.57 "Hg

Humidity: 81%

Dew Point: 37 °F

Location of PooleLocation

Past Weather in Poole — Graph

°F

Poole Temperature Yesterday

Maximum temperature yesterday: 48 °F (at 5:50 am)
Minimum temperature yesterday: 41 °F (at 8:20 pm)
Average temperature yesterday: 45 °F

High & Low Weather Summary for the Past Weeks

 TemperatureHumidityPressure
High52 °F (Jan 7, 11:20 am)100% (Jan 2, 7:20 pm)30.63 "Hg (Jan 2, 7:20 pm)
Low21 °F (Jan 3, 7:50 am)61% (Jan 5, 3:20 pm)29.36 "Hg (Jan 12, 3:20 pm)
Average42 °F88%30.23 "Hg
* Reported Jan 2 10:20 am — Jan 17 10:20 am, Poole, Weather by CustomWeather, © 2017

Note: Actual official high and low records may vary slightly from our data, if they occured in-between our weather recording intervals... More about our weather records

Advertising

Poole Weather History for the Previous 24 Hours

Scroll right to see more
 ConditionsComfort  
Time TempWeatherWind HumidityBarometerVisibility
10:20 am
Tue, Jan 17
41 °FBroken clouds.7 mph93%30.57 "HgN/A
9:50 am41 °FPartly sunny.6 mph93%30.57 "HgN/A
9:20 am41 °FPartly sunny.5 mph93%30.57 "HgN/A
8:50 am41 °FPartly sunny.6 mph93%30.57 "Hg5 mi
8:20 am39 °FOvercast.6 mph100%30.57 "Hg4 mi
7:50 am39 °FOvercast.3 mph100%30.54 "Hg4 mi
7:20 am39 °FOvercast.3 mph100%30.54 "Hg4 mi
6:50 am39 °FOvercast.5 mph100%30.51 "Hg6 mi
6:20 am39 °FPassing clouds.3 mph100%30.51 "Hg6 mi
5:50 am39 °FPassing clouds.6 mph100%30.51 "Hg4 mi
11:50 pm
Mon, Jan 16
41 °FPassing clouds.3 mph100%30.45 "Hg3 mi
10:50 pm41 °FFog.5 mph100%30.45 "Hg3 mi
9:50 pm41 °FDrizzle. Fog.6 mph100%30.45 "Hg2 mi
9:20 pm41 °FDrizzle. Fog.7 mph100%30.42 "Hg1 mi
8:50 pm41 °FDrizzle. Fog.7 mph100%30.42 "Hg1 mi
8:20 pm41 °FFog.7 mph100%30.42 "Hg1 mi
7:50 pm43 °FFog.5 mph93%30.39 "Hg2 mi
7:20 pm43 °FFog.3 mph93%30.39 "Hg2 mi
6:50 pm43 °FFog.5 mph93%30.39 "Hg1 mi
6:20 pm43 °FFog.6 mph100%30.36 "Hg1 mi
5:50 pm43 °FFog.5 mph100%30.36 "Hg1 mi
5:20 pm43 °FFog.5 mph100%30.36 "Hg1 mi
4:50 pm43 °FFog.5 mph100%30.33 "Hg2 mi
4:20 pm43 °FFog.3 mph100%30.33 "Hg2 mi
3:50 pm45 °FFog.5 mph93%30.33 "Hg2 mi
3:20 pm45 °FPartly sunny.5 mph93%30.33 "Hg4 mi
2:50 pm45 °FDrizzle. Fog.5 mph100%30.33 "Hg2 mi
2:20 pm45 °FDrizzle. Fog.7 mph100%30.33 "Hg1 mi
1:50 pm45 °FDrizzle. Fog.6 mph100%30.33 "Hg1 mi
1:20 pm45 °FDrizzle. Fog.6 mph100%30.30 "Hg2 mi
12:50 pm46 °FDrizzle. Fog.6 mph93%30.30 "Hg1 mi
12:20 pm46 °FDrizzle. Fog.6 mph93%30.30 "Hg1 mi
11:50 am46 °FDrizzle. Fog.6 mph93%30.33 "Hg1 mi
11:20 am46 °FDrizzle. Fog.7 mph93%30.33 "Hg1 mi
Weather by CustomWeather, © 2017

See weather overviewHow to use our weather pages